Dewpoint
55 54 54 53 53 53 53 53 53 53 54 54 55 55 56 56 56 43 26 39 48 61 58 32 29 24 19 16 17 17 13 9 3 6 9 13 18 17 18 17 17 17 17 21 21
55 54 54 54 53 53 53 54 54 54 54 54 55 55 56 56 42 25 46 54 56 59 36 24 22 21 17 13 12 10 6 3 9 15 16 16 15 15 13 14 15 14 14 15 17
54 54 53 53 53 54 53 54 54 55 55 55 55 55 57 54 30 30 52 50 57 54 33 26 22 20 17 16 16 12 9 8 13 14 15 16 13 14 13 12 15 14 14 16 19
54 54 53 53 53 54 54 54 55 55 55 55 55 56 58 46 24 30 52 53 60 46 28 23 21 18 18 16 20 17 12 16 14 16 18 18 17 15 15 16 14 15 19 20 21
55 54 53 53 53 54 55 55 55 55 54 55 56 57 50 25 22 34 55 54 38 26 23 22 21 20 17 17 17 15 14 16 18 17 16 16 14 14 14 14 14 13 17 18 19
56 54 54 54 54 54 55 55 55 54 54 55 56 57 48 19 28 30 32 29 25 24 23 21 21 20 17 18 16 17 17 17 17 16 17 15 17 18 17 15 15 13 12 15 21
55 55 54 54 54 54 55 55 55 54 54 55 56 50 24 23 29 31 31 26 26 25 24 25 25 23 22 18 20 21 18 17 17 16 18 19 19 18 19 18 19 18 15 19 21
55 54 55 54 54 54 55 54 54 54 54 55 56 49 25 28 31 30 27 27 28 27 26 27 26 25 24 23 19 18 20 17 16 16 19 21 18 19 18 20 23 22 21 23 21
54 54 55 54 54 54 54 53 53 54 55 55 49 42 23 38 27 24 27 23 23 25 28 26 26 24 22 19 18 16 12 15 16 16 18 19 19 20 20 24 27 28 28 27 26
54 54 55 54 54 54 53 53 55 55 52 40 29 29 20 19 21 24 26 27 25 24 25 25 24 21 18 16 12 14 14 15 15 16 16 16 18 19 20 21 24 25 26 27 28
54 53 54 54 54 54 50 42 37 38 30 25 21 21 20 21 24 22 24 24 24 24 21 21 18 18 18 18 16 16 16 16 17 17 17 18 19 20 22 23 24 25 26 27 28
53 53 54 54 54 54 47 32 33 32 30 23 24 24 23 20 18 20 23 20 21 21 20 19 17 18 17 16 16 15 15 15 16 17 20 21 20 23 23 25 26 27 26 27 28
52 53 54 54 53 46 32 32 35 34 33 25 22 21 19 19 19 19 21 19 17 15 14 14 13 12 13 16 17 18 16 16 17 19 20 20 21 23 22 24 25 26 27 27 29
52 53 53 53 42 31 32 33 34 37 32 27 23 22 18 20 23 20 22 21 19 16 16 14 12 12 16 17 17 17 16 16 17 20 18 22 17 21 21 21 23 26 28 28 30
52 53 53 52 41 31 33 35 34 39 32 19 16 19 18 19 20 22 22 22 21 19 18 18 21 20 18 18 21 21 22 22 23 23 23 20 17 17 18 22 24 26 26 27 30
52 53 52 46 41 33 33 37 39 35 26 14 15 15 16 17 18 18 20 22 21 21 23 21 21 21 23 25 25 26 25 24 24 20 19 18 17 16 17 29 23 25 25 28 26
52 52 49 42 34 32 35 37 34 25 18 15 14 16 18 18 19 20 21 23 21 23 24 21 20 20 24 25 23 29 27 26 23 18 19 26 23 21 25 32 24 25 27 29 31
51 50 48 37 35 37 37 32 29 17 16 20 19 18 18 21 20 21 22 21 20 24 23 25 23 21 22 22 23 23 24 23 23 18 19 23 22 21 26 24 25 28 29 30 31
49 45 40 40 37 37 32 25 25 22 20 21 20 17 16 18 20 21 20 20 20 24 26 25 24 24 23 25 25 25 26 28 34 33 27 23 23 23 23 24 28 29 30 32 34
47 40 38 39 40 38 30 24 23 23 23 22 22 20 21 21 22 21 21 20 22 24 29 28 28 25 23 27 28 30 27 30 35 30 23 18 23 25 27 26 26 29 29 33 34
48 38 39 36 35 35 26 23 21 22 24 25 23 24 24 24 24 23 22 21 23 25 28 28 30 27 27 26 25 29 28 27 29 30 27 22 19 30 31 30 28 27 31 34 34
42 30 38 36 32 30 23 28 31 24 27 27 28 28 27 28 28 27 25 24 29 29 29 29 32 29 26 26 25 26 27 29 35 31 32 34 32 30 31 29 29 29 30 31 34
36 30 37 36 29 22 30 26 28 28 26 27 27 27 28 30 34 29 27 25 26 29 29 32 34 32 24 28 32 30 30 33 35 37 35 32 27 30 34 35 35 39 41 39 38
36 26 27 34 34 35 30 26 27 29 29 29 29 30 30 30 32 33 29 29 31 32 37 35 37 31 28 25 30 31 28 28 36 35 32 31 29 31 32 32 34 37 38 38 38
34 33 38 22 25 32 33 32 28 27 31 31 33 31 30 33 31 31 30 29 30 36 33 35 36 35 34 31 31 30 28 28 28 29 32 31 30 30 31 33 36 37 38 37 35
33 31 30 27 33 34 34 31 29 29 31 32 33 33 33 34 33 32 32 31 32 33 32 40 34 35 32 29 27 28 29 29 28 26 26 29 30 31 38 39 39 39 38 36 36
37 37 38 36 30 30 28 30 28 30 32 34 33 33 32 33 35 34 34 34 34 36 40 39 37 34 29 27 25 28 27 26 25 25 28 32 31 32 33 35 36 36 36 36 37
Lifted_Index
14 14 14 15 15 15 15 15 15 15 15 14 14 14 14 13 13 13 14 13 12 12 12 12 12 12 12 12 11 10 8 7 6 7 7 7 9 10 11 11 10 10 10 10 10
14 14 14 15 15 15 15 15 15 14 14 14 14 14 14 13 13 13 13 13 12 12 12 12 12 12 11 11 11 10 8 7 7 8 8 9 9 10 10 11 10 10 10 10 10
14 14 14 15 15 15 15 14 14 14 14 14 14 14 13 12 12 12 12 12 12 11 12 12 12 11 11 11 10 9 8 8 9 9 9 9 10 10 10 10 10 10 10 10 11
14 14 14 14 14 14 14 14 14 14 14 14 14 13 12 11 11 12 11 11 11 11 11 11 11 10 10 10 9 9 9 9 9 9 9 9 10 10 10 10 10 10 10 10 10
14 14 14 14 14 14 14 14 14 14 14 14 13 12 11 11 11 11 11 10 10 10 10 10 10 9 8 8 8 8 8 8 8 8 8 9 9 9 9 9 10 10 10 10 10
13 14 14 14 14 14 14 14 14 14 14 13 12 11 10 10 11 11 10 10 10 10 10 9 8 8 7 7 7 6 6 7 7 7 7 7 8 8 8 8 9 9 10 10 10
13 14 14 14 14 14 14 14 14 14 14 13 11 10 10 10 10 10 10 10 10 9 9 8 7 7 6 6 5 5 5 5 5 5 6 6 6 6 6 7 7 8 9 9 9
13 14 14 14 14 14 14 14 14 14 13 12 10 9 9 10 10 9 9 9 9 9 8 8 7 6 5 5 5 4 4 3 3 4 4 5 5 5 5 6 6 6 7 7 8
13 14 14 14 14 14 14 14 13 13 12 11 9 8 9 9 9 9 9 8 8 8 8 7 6 5 5 4 4 3 3 2 2 2 2 3 4 4 4 4 5 5 5 6 6
13 14 14 14 14 13 13 13 12 11 10 10 9 8 9 9 9 9 9 8 8 7 7 6 5 4 4 3 3 2 2 2 2 2 1 1 3 3 3 3 3 4 4 5 5
13 13 14 13 13 12 12 11 10 9 9 9 9 9 9 9 9 9 8 8 7 6 6 5 4 3 3 3 3 3 3 2 2 1 0 -0 1 2 2 2 2 2 3 3 4
12 13 13 13 12 11 11 10 9 9 8 8 8 8 8 9 8 8 8 8 7 6 5 5 4 3 3 3 3 3 2 1 0 -0 -1 -0 0 1 1 1 1 2 2 2 3
12 13 13 13 12 11 10 10 10 8 7 7 8 8 8 8 8 8 8 8 7 6 6 5 4 4 4 3 3 2 1 -0 -1 -1 -1 -1 -0 0 0 0 1 1 1 2 2
12 12 13 12 11 10 10 10 10 8 6 6 7 8 8 8 8 8 8 8 7 6 6 5 5 4 4 4 3 2 1 -0 -0 -1 -1 -1 -0 -0 -0 -0 0 1 2 2 2
12 12 12 11 10 9 10 10 9 6 5 5 7 7 7 7 7 7 7 7 7 6 6 5 4 4 4 4 3 2 1 1 0 -0 -0 -0 -0 -0 -0 -0 0 1 2 2 2
12 12 11 10 9 9 9 9 7 5 4 6 7 7 6 6 6 7 7 7 6 6 5 5 4 4 4 3 3 2 2 1 0 -0 -0 -0 -0 -0 -0 0 0 1 2 2 2
12 11 10 9 9 9 9 7 5 5 5 6 6 6 6 6 6 6 6 6 6 5 5 4 4 3 3 3 3 2 2 1 0 -0 -0 -0 -1 -1 -0 0 1 1 2 2 2
11 10 9 9 9 9 8 6 5 5 6 6 6 5 5 5 6 6 6 5 5 5 5 4 3 3 3 3 3 2 1 1 0 -0 -0 -0 -0 -1 0 1 1 1 1 1 1
9 8 8 8 9 9 7 6 6 6 6 6 6 5 5 5 5 5 5 5 5 5 5 4 4 3 3 3 2 2 1 0 0 -0 0 0 0 -0 0 1 1 1 1 1 1
7 7 7 8 9 8 7 7 7 7 7 6 5 5 4 4 5 5 5 5 5 5 5 5 4 4 3 3 2 1 0 0 0 0 -0 -0 -0 0 0 0 0 0 0 0 0
6 6 7 8 8 7 7 7 7 8 7 6 6 5 5 5 4 4 4 5 5 5 5 5 5 4 3 2 2 1 0 0 0 0 -0 -0 -0 -0 -0 -0 -0 -0 -0 -0 -0
6 6 7 7 7 7 7 7 8 8 7 6 6 5 5 5 5 4 4 4 5 5 5 5 5 4 3 2 1 1 0 -0 -0 -0 -0 -0 -0 -0 -0 -0 -0 -1 -1 -1 -1
6 6 7 7 7 6 7 7 7 7 7 6 6 5 5 5 4 4 4 5 5 5 5 5 5 4 3 2 1 1 0 -0 -0 -0 0 0 0 -0 -0 -0 -0 -0 -0 -0 -0
6 6 7 7 7 7 7 7 7 7 7 6 5 5 5 4 4 4 4 4 5 5 5 5 5 4 3 2 1 1 1 0 0 0 0 1 1 0 0 0 0 0 1 1 1
6 6 7 7 7 7 7 6 6 6 6 6 5 5 4 4 4 4 4 4 4 4 4 4 4 4 3 2 2 2 1 1 1 1 1 1 1 1 1 1 1 1 1 2 2
7 7 7 7 7 7 6 6 6 6 6 5 5 5 5 5 5 5 5 5 4 4 3 4 4 3 3 2 2 1 1 0 1 1 1 2 2 2 2 2 2 2 2 2 3
8 8 7 7 7 6 6 6 7 7 6 5 5 5 5 5 5 5 5 5 5 4 3 3 3 3 2 2 2 1 0 -0 0 1 2 2 2 2 2 2 2 3 3 3 3